Station FFIA2 - Five Fingers, AK Image indicating link to RSS feed of recent meteorological observations for station FFIA2


Conditions at FFIA2 as of
(6:00 pm AKDT on 06/15/2024)
0200 GMT on 06/16/2024:
     

Click on the graph icon in the table below to see a time series plot of the last five days of that observation.

5-day plot - Wind Direction Wind Direction (WDIR): SW ( 230 deg true )
5-day plot - Wind Speed Wind Speed (WSPD): 8 kts
5-day plot - Wind Gust Wind Gust (GST): 9 kts
5-day plot - Atmospheric Pressure Atmospheric Pressure (PRES):29.98 in
5-day plot - Pressure Tendency Pressure Tendency (PTDY):-0.01 in ( Falling )
5-day plot - Air Temperature Air Temperature (ATMP): 57.9 °F
5-day plot - Wind Speed at 10 Meters Wind Speed at 10 meters (WSPD10M): 8 kts
5-day plot - Wind Speed at 20 Meters Wind Speed at 20 meters (WSPD20M): 8 kts
5-day plot -  Wind Speed, Wind Gust and Atmospheric Pressure Combined plot of Wind Speed, Gust, and Air Pressure
Continuous Winds
TIME
(AKDT)
5-day plot - Wind Direction WDIR 5-day plot - Wind Speed WSPD
6:00 pmSW ( 221 deg ) 7 kts
5:50 pmSW ( 218 deg ) 6 kts
5:40 pmSW ( 215 deg ) 5 kts
5:30 pmSSW ( 209 deg ) 4 kts
5:20 pmSW ( 221 deg ) 5 kts
5:10 pmSW ( 221 deg ) 6 kts
 
Peak gust during the measurement hour
TIME
(AKDT)
5-day plot - Gust Direction GDR 5-day plot - Gust Speed GST
5:58 pmSW ( 230 deg ) 9 kts
Previous observations
TIME
(AKDT)
5-day plot - Wind Direction
WDIR
 
5-day plot - Wind Speed
WSPD
kts
5-day plot - Wind Gust
GST
kts
5-day plot - Wave Height
WVHT
ft
5-day plot - Dominant Wave Period
DPD
sec
5-day plot - Average Wave Period
APD
sec
5-day plot - Mean Wave Direction
MWD
 
5-day plot - Atmospheric Pressure
PRES
in
5-day plot - Pressure Tendency
PTDY
in
5-day plot - Air Temperature
ATMP
°F
5-day plot - Water Temperature
WTMP
°F
5-day plot - Dew Point
DEWP
°F
5-day plot - Salinity
SAL
psu
5-day plot - Visibility
VIS
nmi
5-day plot - Tide (above MLLW)
TIDE
ft
2024-06-15 05:00 pm SW 5 6----29.98-0.01 57.6-----
2024-06-15 04:00 pm SW 4 4----29.99+0.00 55.9-----
2024-06-15 03:00 pmWSW 4 4----29.99+0.00 54.5-----
2024-06-15 02:00 pm- 0 2----30.00+0.00 54.7-----
2024-06-15 01:00 pmSSW 2 2----29.99+0.00 53.8-----
2024-06-15 12:00 pm W 5 5----30.00+0.00 52.3-----
2024-06-15 11:00 amNNW 8 9----29.99+0.00 51.8-----
2024-06-15 10:00 am N 7 8----30.00+0.00 51.1-----
2024-06-15 09:00 am N 11 13----29.99-0.02 50.5-----
2024-06-15 08:00 am N 13 14----30.00-0.03 50.4-----
2024-06-15 07:00 am N 14 16----30.00-0.02 50.5-----
2024-06-15 06:00 am N 14 15----30.01-0.01 50.9-----
2024-06-15 05:00 am N 11 12----30.02+0.00 51.1-----
2024-06-15 04:00 am N 12 14----30.02-0.01 50.9-----
2024-06-15 03:00 am N 14 15----30.02+0.00 51.3-----
2024-06-15 02:00 am N 13 14----30.03+0.00 51.8-----
2024-06-15 01:00 amNNW 9 9----30.03+0.01 52.3-----
2024-06-15 12:00 amNNW 14 15----30.03+0.00 53.6-----
2024-06-14 11:00 pm N 12 13----30.03+0.00 53.6-----
2024-06-14 10:00 pm N 16 17----30.02+0.00 53.6-----
2024-06-14 09:00 pm N 9 10----30.02-0.01 53.2-----
2024-06-14 08:00 pm N 9 11----30.03+0.00 53.1-----
2024-06-14 07:00 pm N 8 9----30.03-0.01 53.4-----
2024-06-14 06:00 pm N 8 9----30.03+0.00 52.7-----